Quillayute, WA

12:05 AM PST on January 24, 2018 (GMT -0800)
Quillayute

Weather History for KUIL - November, 2013

Change the Weather History Date:

Tuesday, November 19, 2013

  Actual Average Record
Temperature  
Mean Temperature 39 °F 44 °F  
Max Temperature 49 °F 50 °F 66 °F (1987)
Min Temperature 28 °F 38 °F 25 °F (2011)
Degree Days  
Heating Degree Days 26 21  
Month to date heating degree days 296 376  
Since 1 July heating degree days 975 1466  
Cooling Degree Days 0 0  
Month to date cooling degree days 0 0  
Year to date cooling degree days 39 19  
Moisture  
Dew Point 35 °F    
Average Humidity 65    
Maximum Humidity 92    
Minimum Humidity 38    
Precipitation  
Precipitation T in 0.55 in 5.28 in (1991)
Month to date precipitation 6.78 9.71  
Year to date precipitation 81.34 80.74  
Sea Level Pressure  
Sea Level Pressure 29.82 in    
Wind  
Wind Speed 4 mph (NNW)    
Max Wind Speed 16 mph    
Max Gust Speed 24 mph    
Visibility 6 miles    
Events      
T = Trace of Precipitation, MM = Missing Value Source: NWS Daily Summary

Daily Weather History Graph

Daily Weather History Graph

Search for Another Location

Airport or City:

Trip Planner

Search our weather history database for the weather conditions in past years. The results will help you decide how hot, cold, wet, or windy it might be!

Date:

Astronomy

Nov. 19, 2013 Rise Set
Actual Time 7:30 AM PST 4:36 PM PST
Civil Twilight 6:56 AM PST 5:10 PM PST
Nautical Twilight 6:18 AM PST 5:48 PM PST
Astronomical Twilight 5:41 AM PST 6:25 PM PST
Moon 6:30 PM PST (11/19) 9:16 AM PST (11/19)
Length of Visible Light 10h 13m
Length of Day
9h 05m
Waning Gibbous, 95% of the Moon is Illuminated
Nov 19
Waning Gibbous
Nov 25
Last Quarter
Dec 2
New
Dec 9
First Quarter
Dec 17
Full

Hourly Weather History & Observations

Time (PST) Temp. Windchill Dew Point Humidity Pressure Visibility Wind Dir Wind Speed Gust Speed Precip Events Conditions
12:28 AM 46.4 °F 41.9 °F 42.8 °F 87% 29.63 in 7.0 mi NW 9.2 mph - N/A   Overcast
12:38 AM 46.4 °F 42.4 °F 42.8 °F 87% 29.64 in 7.0 mi NW 8.1 mph 16.1 mph N/A   Overcast
12:45 AM 46.4 °F 42.9 °F 42.8 °F 87% 29.64 in 8.0 mi NW 6.9 mph - N/A   Overcast
12:53 AM 46.9 °F - 43.0 °F 86% 29.65 in 7.0 mi NW 6.9 mph - N/A   Overcast
1:17 AM 46.4 °F 44.3 °F 42.8 °F 87% 29.66 in 7.0 mi NW 4.6 mph - N/A   Scattered Clouds
1:25 AM 46.4 °F - 42.8 °F 87% 29.66 in 7.0 mi Calm Calm - N/A   Mostly Cloudy
1:53 AM 46.9 °F - 42.1 °F 83% 29.67 in 7.0 mi Calm Calm - N/A   Overcast
2:29 AM 46.4 °F - 42.8 °F 87% 29.69 in 7.0 mi Calm Calm - N/A   Overcast
2:53 AM 46.0 °F - 42.1 °F 86% 29.70 in 7.0 mi Calm Calm - N/A   Overcast
3:53 AM 46.0 °F - 42.1 °F 86% 29.71 in 7.0 mi Calm Calm - 0.00 in   Overcast
4:53 AM 45.0 °F 43.5 °F 39.9 °F 82% 29.73 in 7.0 mi Variable 3.5 mph - 0.00 in   Overcast
5:53 AM 42.1 °F - 37.9 °F 85% 29.75 in 7.0 mi Calm Calm - N/A   Mostly Cloudy
6:53 AM 44.1 °F - 37.9 °F 79% 29.77 in 8.0 mi Calm Calm - 0.00 in   Mostly Cloudy
7:34 AM 41.0 °F - 37.4 °F 87% 29.79 in 1.8 mi Calm Calm - N/A   Partly Cloudy
7:41 AM 39.2 °F - 37.4 °F 93% 29.79 in 1.2 mi Calm Calm - N/A   Partly Cloudy
7:45 AM 39.2 °F - 37.4 °F 93% 29.79 in 2.0 mi Calm Calm - N/A   Scattered Clouds
7:53 AM 39.9 °F - 37.0 °F 89% 29.80 in 6.0 mi Calm Calm - N/A   Scattered Clouds
8:11 AM 41.0 °F - 37.4 °F 87% 29.80 in 2.0 mi Calm Calm - N/A   Mostly Cloudy
8:22 AM 41.0 °F - 37.4 °F 87% 29.80 in 5.0 mi Calm Calm - N/A   Scattered Clouds
8:53 AM 43.0 °F 39.5 °F 39.0 °F 86% 29.81 in 6.0 mi WNW 5.8 mph - N/A   Scattered Clouds
9:53 AM 46.9 °F - 37.9 °F 71% 29.83 in 6.0 mi NW 6.9 mph - N/A   Haze
10:53 AM 48.9 °F - 37.0 °F 64% 29.86 in 6.0 mi North 6.9 mph - N/A   Haze
11:53 AM 48.9 °F - 33.1 °F 54% 29.87 in 7.0 mi NNW 6.9 mph - N/A   Clear
12:53 PM 48.0 °F - 26.1 °F 42% 29.88 in 7.0 mi NW 12.7 mph 20.7 mph N/A   Clear
1:53 PM 46.9 °F - 24.1 °F 41% 29.89 in 7.0 mi NW 11.5 mph 20.7 mph N/A   Clear
2:53 PM 46.0 °F 40.6 °F 23.0 °F 40% 29.91 in 7.0 mi NW 11.5 mph - N/A   Clear
3:53 PM 43.0 °F 41.3 °F 24.1 °F 47% 29.93 in 7.0 mi NW 3.5 mph - N/A   Clear
4:53 PM 39.9 °F 37.8 °F 25.0 °F 55% 29.94 in 7.0 mi NNW 3.5 mph - N/A   Clear
5:53 PM 34.0 °F - 28.0 °F 79% 29.94 in 7.0 mi Calm Calm - N/A   Clear
6:53 PM 34.0 °F - 28.0 °F 79% 29.95 in 7.0 mi Calm Calm - N/A   Clear
7:53 PM 33.1 °F 28.7 °F 28.0 °F 82% 29.98 in 7.0 mi NE 4.6 mph - N/A   Clear
8:53 PM 33.1 °F - 28.9 °F 85% 30.01 in 7.0 mi Calm Calm - N/A   Clear
9:53 PM 30.0 °F 26.5 °F 27.0 °F 88% 30.04 in 7.0 mi NE 3.5 mph - N/A   Clear
10:53 PM 30.9 °F 26.2 °F 28.0 °F 89% 30.06 in 7.0 mi East 4.6 mph - N/A   Clear
11:53 PM 28.9 °F - 25.0 °F 85% 30.09 in 7.0 mi Calm Calm - N/A   Clear